,,,PA_Meas_PMT16A,,PR_Meas_QMR101_102,,RH_Meas_QMH101,,SR_Meas_QMS101,,TA_Meas_QMH101,,GenWind,,GenWind,
date,time,status,PA,status,PR,status,RH,status,SR,status,TA,status,DirAvg,status,SpdAvg,
2011-04-15, 00:00:05,VALID,1003.73,VALID,0,INVALID,163.678,VALID,0,VALID,24.7316,VALID,234,VALID,0.267578,
2011-04-15, 00:01:05,VALID,1003.72,VALID,0,INVALID,163.67,VALID,0,VALID,24.8522,VALID,169,VALID,1.20195,
2011-04-15, 00:02:05,VALID,1003.67,VALID,0,INVALID,163.67,VALID,0,VALID,24.8679,VALID,275,VALID,0.975391,
2011-04-15, 00:03:05,VALID,1003.66,VALID,0,INVALID,163.647,VALID,0,VALID,25.045,VALID,240,VALID,2.26523,
2011-04-15, 00:04:05,VALID,1003.66,VALID,0,INVALID,163.655,VALID,0,VALID,25.2378,VALID,228,VALID,1.82187,
2011-04-15, 00:05:05,VALID,1003.63,VALID,0,INVALID,163.601,VALID,0.100563,VALID,25.452,VALID,206,VALID,0.737109,
2011-04-15, 00:06:05,VALID,1003.61,VALID,0,INVALID,153.318,VALID,0,VALID,25.6681,VALID,179,VALID,1.22539,
2011-04-15, 00:07:05,VALID,1003.68,VALID,0,INVALID,109.825,VALID,0,VALID,25.9018,VALID,212,VALID,1.76758,
2011-04-15, 00:08:05,VALID,1003.63,VALID,0,VALID,101.655,VALID,0,VALID,26.155,VALID,218,VALID,2.73359,
2011-04-15, 00:09:05,VALID,1003.62,VALID,0,VALID,100.297,VALID,0,VALID,26.2913,VALID,190,VALID,0.784766,
2011-04-15, 00:10:05,VALID,1003.64,VALID,0,VALID,98.0921,VALID,0,VALID,26.3693,VALID,151,VALID,0.898438,
2011-04-15, 00:11:05,VALID,1003.58,VALID,0,VALID,96.2307,VALID,0,VALID,26.4062,VALID,232,VALID,2.43594,
2011-04-15, 00:12:05,VALID,1003.6,VALID,0,VALID,95.0787,VALID,0,VALID,26.5251,VALID,220,VALID,1.73047,
2011-04-15, 00:13:05,VALID,1003.61,VALID,0,VALID,94.2319,VALID,0.100563,VALID,26.562,VALID,255,VALID,1.03555,
2011-04-15, 00:14:05,VALID,1003.61,VALID,0,VALID,94.2548,VALID,0,VALID,26.6225,VALID,151,VALID,0.780859,
2011-04-15, 00:15:05,VALID,1003.6,VALID,0,VALID,94.4379,VALID,0,VALID,26.642,VALID,189,VALID,1.33984,
2011-04-15, 00:16:05,VALID,1003.61,VALID,0,VALID,94.1938,VALID,0,VALID,26.7004,VALID,168,VALID,0.985156,
2011-04-15, 00:17:05,VALID,1003.6,VALID,0,VALID,93.1257,VALID,0,VALID,26.7004,VALID,199,VALID,1.51328,
2011-04-15, 00:18:05,VALID,1003.65,VALID,0,VALID,93.202,VALID,0.100563,VALID,26.7199,VALID,244,VALID,0.914844,
2011-04-15, 00:19:05,VALID,1003.61,VALID,0,VALID,93.0418,VALID,0,VALID,26.7199,VALID,194,VALID,1.93945,
2011-04-15, 00:20:05,VALID,1003.61,VALID,0,VALID,92.7901,VALID,0,VALID,26.7414,VALID,196,VALID,0.713672,
2011-04-15, 00:21:05,VALID,1003.6,VALID,0,VALID,92.5841,VALID,0,VALID,26.7394,VALID,209,VALID,1.34102,
2011-04-15, 00:22:05,VALID,1003.57,VALID,0,VALID,92.935,VALID,0,VALID,26.7589,VALID,199,VALID,1.33906,
2011-04-15, 00:23:05,VALID,1003.61,VALID,0,VALID,93.4843,VALID,0,VALID,26.7804,VALID,207,VALID,0.340625,
2011-04-15, 00:24:05,VALID,1003.61,VALID,0,VALID,94.0565,VALID,0,VALID,26.7394,VALID,203,VALID,0.705078,
2011-04-15, 00:25:05,VALID,1003.6,VALID,0,VALID,94.1175,VALID,0,VALID,26.7179,VALID,178,VALID,1.03906,
2011-04-15, 00:26:05,VALID,1003.57,VALID,0,VALID,93.9344,VALID,0,VALID,26.7589,VALID,168,VALID,0.856641,
2011-04-15, 00:27:05,VALID,1003.55,VALID,0,VALID,94.0717,VALID,0,VALID,26.7978,VALID,187,VALID,1.21992,
2011-04-15, 00:28:05,VALID,1003.58,VALID,0,VALID,92.0043,VALID,0,VALID,26.7978,VALID,212,VALID,1.92813,
2011-04-15, 00:29:05,VALID,1003.55,VALID,0,VALID,91.661,VALID,0,VALID,26.8563,VALID,207,VALID,1.95195,
2011-04-15, 00:30:05,VALID,1003.54,VALID,0,VALID,90.9668,VALID,0.100563,VALID,26.8563,VALID,225,VALID,1.58203,
2011-04-15, 00:31:05,VALID,1003.5,VALID,0,VALID,90.4938,VALID,0,VALID,26.8563,VALID,166,VALID,1.9457,
2011-04-15, 00:32:05,VALID,1003.52,VALID,0,VALID,90.3488,VALID,0,VALID,26.8757,VALID,189,VALID,1.61641,
2011-04-15, 00:33:05,VALID,1003.5,VALID,0,VALID,91.3711,VALID,0,VALID,26.8778,VALID,176,VALID,0.684375,
2011-04-15, 00:34:05,VALID,1003.5,VALID,0,VALID,92.1798,VALID,0,VALID,26.8583,VALID,208,VALID,1.61367,
2011-04-15, 00:35:05,VALID,1003.47,VALID,0,VALID,90.715,VALID,0,VALID,26.8173,VALID,203,VALID,1.41797,
2011-04-15, 00:36:05,VALID,1003.46,VALID,0,VALID,90.0437,VALID,0.100563,VALID,26.8368,VALID,217,VALID,2.18555,
2011-04-15, 00:37:05,VALID,1003.44,VALID,0,VALID,89.914,VALID,0,VALID,26.8583,VALID,208,VALID,1.99844,
2011-04-15, 00:38:05,VALID,1003.46,VALID,0,VALID,89.647,VALID,0,VALID,26.8368,VALID,210,VALID,0.966016,
2011-04-15, 00:39:05,VALID,1003.41,VALID,0,VALID,88.7697,VALID,0,VALID,26.8368,VALID,221,VALID,2.97891,
2011-04-15, 00:40:05,VALID,1003.42,VALID,0,VALID,89.174,VALID,0,VALID,26.8583,VALID,193,VALID,1.86797,
2011-04-15, 00:41:05,VALID,1003.35,VALID,0,VALID,88.5942,VALID,0,VALID,26.8368,VALID,209,VALID,2.27891,
2011-04-15, 00:42:05,VALID,1003.34,VALID,0,VALID,88.9375,VALID,0,VALID,26.8368,VALID,186,VALID,1.77266,
2011-04-15, 00:43:05,VALID,1003.37,VALID,0,VALID,88.968,VALID,0,VALID,26.8388,VALID,213,VALID,2.5457,
2011-04-15, 00:44:05,VALID,1003.34,VALID,0,VALID,89.4181,VALID,0,VALID,26.8173,VALID,193,VALID,2.20859,
2011-04-15, 00:45:05,VALID,1003.28,VALID,0,VALID,89.0061,VALID,0,VALID,26.8173,VALID,197,VALID,3.51328,
2011-04-15, 00:46:05,VALID,1003.26,VALID,0,VALID,88.3653,VALID,0,VALID,26.8173,VALID,224,VALID,2.20039,
2011-04-15, 00:47:05,VALID,1003.31,VALID,0,VALID,88.6323,VALID,0,VALID,26.7978,VALID,196,VALID,0.830078,
2011-04-15, 00:48:05,VALID,1003.23,VALID,0,VALID,88.6476,VALID,0,VALID,26.7373,VALID,176,VALID,1.09648,
2011-04-15, 00:49:05,VALID,1003.23,VALID,0,VALID,88.022,VALID,0,VALID,26.7414,VALID,208,VALID,1.34297,
2011-04-15, 00:50:05,VALID,1003.25,VALID,0,VALID,88.3043,VALID,0,VALID,26.7199,VALID,204,VALID,0.931641,
2011-04-15, 00:51:05,VALID,1003.31,VALID,0,VALID,87.6024,VALID,0,VALID,26.7394,VALID,261,VALID,0.65625,
2011-04-15, 00:52:05,VALID,1003.25,VALID,0,VALID,86.9845,VALID,0,VALID,26.7394,VALID,205,VALID,1.68398,
2011-04-15, 00:53:05,VALID,1003.27,VALID,0,VALID,86.275,VALID,0,VALID,26.7804,VALID,239,VALID,2.35625,
2011-04-15, 00:54:05,VALID,1003.24,VALID,0,VALID,85.6647,VALID,0,VALID,26.7589,VALID,200,VALID,2.38359,
2011-04-15, 00:55:05,VALID,1003.22,VALID,0,VALID,85.5732,VALID,0,VALID,26.7783,VALID,184,VALID,2.5375,
2011-04-15, 00:56:05,VALID,1003.24,VALID,0,VALID,85.8249,VALID,0,VALID,26.7998,VALID,194,VALID,1.91914,
2011-04-15, 00:57:05,VALID,1003.21,VALID,0,VALID,86.5344,VALID,0,VALID,26.7998,VALID,238,VALID,0.552344,
2011-04-15, 00:58:05,VALID,1003.19,VALID,0,VALID,86.5954,VALID,0,VALID,26.7589,VALID,237,VALID,1.25586,
2011-04-15, 00:59:05,VALID,1003.17,VALID,0,VALID,85.8173,VALID,0,VALID,26.7394,VALID,180,VALID,1.98047,
2011-04-15, 01:00:05,VALID,1003.17,VALID,0,VALID,85.4969,VALID,0,VALID,26.7783,VALID,204,VALID,2.51758,
2011-04-15, 01:01:05,VALID,1003.2,VALID,0,VALID,85.2222,VALID,0,VALID,26.8408,VALID,205,VALID,0.683594,
2011-04-15, 01:02:05,VALID,1003.16,VALID,0,VALID,85.5655,VALID,0,VALID,26.7998,VALID,212,VALID,1.59648,
2011-04-15, 01:03:05,VALID,1003.22,VALID,0,VALID,86.3208,VALID,0,VALID,26.7804,VALID,239,VALID,1.45117,
2011-04-15, 01:04:05,VALID,1003.22,VALID,0,VALID,86.3437,VALID,0,VALID,26.7804,VALID,236,VALID,1.5043,
2011-04-15, 01:05:05,VALID,1003.24,VALID,0,VALID,86.4505,VALID,0,VALID,26.7609,VALID,218,VALID,1.14414,
2011-04-15, 01:06:05,VALID,1003.2,VALID,0,VALID,85.329,VALID,0,VALID,26.7609,VALID,234,VALID,1.69062,
2011-04-15, 01:07:05,VALID,1003.19,VALID,0,VALID,85.0468,VALID,0,VALID,26.7609,VALID,225,VALID,2.74727,
2011-04-15, 01:08:05,VALID,1003.21,VALID,0,VALID,85.0315,VALID,0,VALID,26.7589,VALID,194,VALID,1.25156,
2011-04-15, 01:09:05,VALID,1003.22,VALID,0,VALID,85.2909,VALID,0,VALID,26.7589,VALID,240,VALID,1.89883,
2011-04-15, 01:10:05,VALID,1003.19,VALID,0,VALID,85.6037,VALID,0,VALID,26.7394,VALID,226,VALID,1.49844,
2011-04-15, 01:11:05,VALID,1003.14,VALID,0,VALID,85.596,VALID,0,VALID,26.7004,VALID,225,VALID,1.49961,
2011-04-15, 01:12:05,VALID,1003.13,VALID,0,VALID,86.0843,VALID,0,VALID,26.6809,VALID,262,VALID,1.08398,
2011-04-15, 01:13:05,VALID,1003.15,VALID,0,VALID,86.7556,VALID,0,VALID,26.6635,VALID,148,VALID,1.68633,
2011-04-15, 01:14:05,VALID,1003.15,VALID,0,VALID,85.9927,VALID,0,VALID,26.683,VALID,185,VALID,2.0457,
2011-04-15, 01:15:05,VALID,1003.16,VALID,0,VALID,85.8707,VALID,0,VALID,26.6614,VALID,223,VALID,1.49063,
2011-04-15, 01:16:05,VALID,1003.15,VALID,0,VALID,85.9622,VALID,0,VALID,26.642,VALID,243,VALID,1.425,
2011-04-15, 01:17:05,VALID,1003.13,VALID,0,VALID,85.7486,VALID,0,VALID,26.6614,VALID,218,VALID,1.64844,
2011-04-15, 01:18:05,VALID,1003.18,VALID,0,VALID,85.4969,VALID,0,VALID,26.6809,VALID,238,VALID,3.17031,
2011-04-15, 01:19:05,VALID,1003.16,VALID,0,VALID,85.0925,VALID,0,VALID,26.7024,VALID,209,VALID,1.20117,
2011-04-15, 01:20:05,VALID,1003.19,VALID,0,VALID,84.9476,VALID,0,VALID,26.6614,VALID,225,VALID,2.29609,
2011-04-15, 01:21:05,VALID,1003.2,VALID,0,VALID,85.0086,VALID,0,VALID,26.6809,VALID,214,VALID,1.55977,
2011-04-15, 01:22:05,VALID,1003.17,VALID,0,VALID,86.069,VALID,0,VALID,26.6809,VALID,277,VALID,1.30273,
2011-04-15, 01:23:05,VALID,1003.19,VALID,0,VALID,85.5579,VALID,0,VALID,26.7004,VALID,231,VALID,2.6168,
2011-04-15, 01:24:05,VALID,1003.16,VALID,0,VALID,85.7639,VALID,0,VALID,26.7004,VALID,250,VALID,1.79062,
2011-04-15, 01:25:05,VALID,1003.17,VALID,0,VALID,86.1301,VALID,0,VALID,26.7414,VALID,260,VALID,1.12656,
2011-04-15, 01:26:05,VALID,1003.18,VALID,0,VALID,86.0461,VALID,0,VALID,26.7199,VALID,217,VALID,1.21406,
2011-04-15, 01:27:05,VALID,1003.18,VALID,0,VALID,86.6259,VALID,0,VALID,26.7414,VALID,236,VALID,0.932422,
2011-04-15, 01:28:05,VALID,1003.2,VALID,0,VALID,86.5039,VALID,0,VALID,26.7414,VALID,232,VALID,1.52734,
2011-04-15, 01:29:05,VALID,1003.16,VALID,0,VALID,86.8548,VALID,0,VALID,26.7004,VALID,193,VALID,1.28398,
2011-04-15, 01:30:05,VALID,1003.12,VALID,0,VALID,86.6412,VALID,0,VALID,26.7004,VALID,226,VALID,3.17148,
2011-04-15, 01:31:05,VALID,1003.14,VALID,0,VALID,86.6641,VALID,0,VALID,26.7219,VALID,266,VALID,2.56445,
2011-04-15, 01:32:05,VALID,1003.09,VALID,0,VALID,86.1606,VALID,0,VALID,26.7199,VALID,216,VALID,1.04688,
2011-04-15, 01:33:05,VALID,1003.02,VALID,0,VALID,86.0233,VALID,0,VALID,26.7414,VALID,234,VALID,2.16992,
2011-04-15, 01:34:05,VALID,1003.05,VALID,0,VALID,86.6946,VALID,0,VALID,26.7414,VALID,242,VALID,0.814062,
2011-04-15, 01:35:05,VALID,1003.03,VALID,0,VALID,86.3818,VALID,0,VALID,26.7004,VALID,233,VALID,1.38906,
2011-04-15, 01:36:05,VALID,1002.98,VALID,0,VALID,86.2216,VALID,0,VALID,26.7024,VALID,267,VALID,1.78516,
2011-04-15, 01:37:05,VALID,1002.96,VALID,0,VALID,85.7257,VALID,0,VALID,26.683,VALID,228,VALID,1.5875,
2011-04-15, 01:38:05,VALID,1003,VALID,0,VALID,86.0995,VALID,0,VALID,26.6614,VALID,182,VALID,1.11367,
2011-04-15, 01:39:05,VALID,1002.95,VALID,0,VALID,85.9775,VALID,0,VALID,26.642,VALID,215,VALID,1.57578,
2011-04-15, 01:40:05,VALID,1002.91,VALID,0,VALID,86.4276,VALID,0,VALID,26.6635,VALID,282,VALID,0.501562,
2011-04-15, 01:41:05,VALID,1002.84,VALID,0,VALID,85.6647,VALID,0,VALID,26.6225,VALID,235,VALID,1.54727,
2011-04-15, 01:42:05,VALID,1002.86,VALID,0,VALID,86.2521,VALID,0,VALID,26.6225,VALID,221,VALID,0.792188,
2011-04-15, 01:43:05,VALID,1002.85,VALID,0,VALID,86.6031,VALID,0,VALID,26.603,VALID,191,VALID,0.938672,
2011-04-15, 01:44:05,VALID,1002.84,VALID,0,VALID,86.8395,VALID,0,VALID,26.5855,VALID,219,VALID,0.685938,
2011-04-15, 01:45:05,VALID,1002.83,VALID,0,VALID,86.481,VALID,0,VALID,26.605,VALID,222,VALID,2.76914,
2011-04-15, 01:46:05,VALID,1002.81,VALID,0,VALID,87.3278,VALID,0,VALID,26.5641,VALID,237,VALID,2.08906,
2011-04-15, 01:47:05,VALID,1002.81,VALID,0,VALID,88.1059,VALID,0,VALID,26.5835,VALID,254,VALID,0.927734,
2011-04-15, 01:48:05,VALID,1002.82,VALID,0,VALID,88.1746,VALID,0,VALID,26.5641,VALID,264,VALID,1.48906,
2011-04-15, 01:49:05,VALID,1002.81,VALID,0,VALID,87.5185,VALID,0,VALID,26.5661,VALID,249,VALID,1.65117,
2011-04-15, 01:50:05,VALID,1002.8,VALID,0,VALID,87.6177,VALID,0,VALID,26.5446,VALID,223,VALID,2.99219,
2011-04-15, 01:51:05,VALID,1002.8,VALID,0,VALID,88.1365,VALID,0,VALID,26.605,VALID,230,VALID,2.525,
2011-04-15, 01:52:05,VALID,1002.8,VALID,0,VALID,88.5637,VALID,0,VALID,26.5855,VALID,229,VALID,2.0418,
2011-04-15, 01:53:05,VALID,1002.8,VALID,0,VALID,88.8154,VALID,0,VALID,26.5855,VALID,196,VALID,0.955469,
2011-04-15, 01:54:05,VALID,1002.81,VALID,0,VALID,89.4181,VALID,0,VALID,26.5855,VALID,225,VALID,0.542188,
2011-04-15, 01:55:05,VALID,1002.79,VALID,0,VALID,89.296,VALID,0,VALID,26.5446,VALID,228,VALID,1.13398,
2011-04-15, 01:56:05,VALID,1002.76,VALID,0,VALID,89.1664,VALID,0,VALID,26.5661,VALID,235,VALID,1.29727,
2011-04-15, 01:57:05,VALID,1002.77,VALID,0,VALID,89.2198,VALID,0,VALID,26.605,VALID,226,VALID,1.95703,
2011-04-15, 01:58:05,VALID,1002.77,VALID,0,VALID,88.3806,VALID,0,VALID,26.5855,VALID,225,VALID,2.16133,
2011-04-15, 01:59:05,VALID,1002.75,VALID,0,VALID,88.6628,VALID,0,VALID,26.6205,VALID,246,VALID,0.656641,
2011-04-15, 02:00:05,VALID,1002.73,VALID,0,VALID,88.1899,VALID,0.100563,VALID,26.6225,VALID,195,VALID,1.34961,
2011-04-15, 02:01:05,VALID,1002.81,VALID,0,VALID,88.4492,VALID,0.100563,VALID,26.642,VALID,214,VALID,1.72656,
2011-04-15, 02:02:05,VALID,1002.79,VALID,0,VALID,88.6171,VALID,0,VALID,26.642,VALID,188,VALID,1.49609,
2011-04-15, 02:03:05,VALID,1002.82,VALID,0,VALID,88.9604,VALID,0.100563,VALID,26.642,VALID,196,VALID,1.11953,
2011-04-15, 02:04:05,VALID,1002.81,VALID,0,VALID,89.3189,VALID,0,VALID,26.6614,VALID,230,VALID,1.09727,
2011-04-15, 02:05:05,VALID,1002.82,VALID,0,VALID,89.0595,VALID,0,VALID,26.6205,VALID,227,VALID,1.01094,
2011-04-15, 02:06:05,VALID,1002.78,VALID,0,VALID,89.2045,VALID,0.100563,VALID,26.601,VALID,202,VALID,1.60117,
2011-04-15, 02:07:05,VALID,1002.77,VALID,0,VALID,89.0367,VALID,0.100563,VALID,26.601,VALID,190,VALID,1.59687,
2011-04-15, 02:08:05,VALID,1002.75,VALID,0,VALID,89.4105,VALID,0.100563,VALID,26.5815,VALID,128,VALID,0.814062,
2011-04-15, 02:09:05,VALID,1002.75,VALID,0,VALID,89.3952,VALID,0.100563,VALID,26.5815,VALID,233,VALID,1.58672,
2011-04-15, 02:10:05,VALID,1002.77,VALID,0,VALID,90.2725,VALID,0,VALID,26.5835,VALID,304,VALID,0.849219,
2011-04-15, 02:11:05,VALID,1002.78,VALID,0,VALID,90.1276,VALID,0.100563,VALID,26.5835,VALID,172,VALID,0.601953,
2011-04-15, 02:12:05,VALID,1002.8,VALID,0,VALID,90.5853,VALID,0.100563,VALID,26.5815,VALID,226,VALID,0.220313,
2011-04-15, 02:13:05,VALID,1002.8,VALID,0,VALID,90.9591,VALID,0.100563,VALID,26.5426,VALID,230,VALID,0.669141,
2011-04-15, 02:14:05,VALID,1002.76,VALID,0,VALID,91.0583,VALID,0,VALID,26.5446,VALID,213,VALID,1.75586,
2011-04-15, 02:15:05,VALID,1002.78,VALID,0,VALID,90.9744,VALID,0,VALID,26.5466,VALID,209,VALID,2.53125,
2011-04-15, 02:16:05,VALID,1002.75,VALID,0,VALID,91.4626,VALID,0,VALID,26.5661,VALID,238,VALID,1.33672,
2011-04-15, 02:17:05,VALID,1002.75,VALID,0,VALID,91.8288,VALID,0,VALID,26.5661,VALID,245,VALID,1.31836,
2011-04-15, 02:18:05,VALID,1002.75,VALID,0,VALID,92.1035,VALID,0,VALID,26.5661,VALID,224,VALID,1.05,
2011-04-15, 02:19:05,VALID,1002.74,VALID,0,VALID,92.3781,VALID,0,VALID,26.5661,VALID,238,VALID,1.07109,
2011-04-15, 02:20:05,VALID,1002.72,VALID,0,VALID,92.729,VALID,0,VALID,26.5466,VALID,272,VALID,0.565625,
2011-04-15, 02:21:05,VALID,1002.74,VALID,0,VALID,92.7443,VALID,0,VALID,26.5271,VALID,248,VALID,0.661328,
2011-04-15, 02:22:05,VALID,1002.7,VALID,0,VALID,92.8053,VALID,0,VALID,26.5076,VALID,240,VALID,0.392969,
2011-04-15, 02:23:05,VALID,1002.66,VALID,0,VALID,93.0571,VALID,0,VALID,26.5096,VALID,276,VALID,0.709766,
2011-04-15, 02:24:05,VALID,1002.66,VALID,0,VALID,93.1334,VALID,0,VALID,26.4687,VALID,211,VALID,0.422266,
2011-04-15, 02:25:04,VALID,1002.67,VALID,0,VALID,93.2554,VALID,0,VALID,26.4492,VALID,237,VALID,0.652344,
2011-04-15, 02:26:04,VALID,1002.7,VALID,0,VALID,93.4385,VALID,0,VALID,26.4492,VALID,264,VALID,1.37422,
2011-04-15, 02:27:04,VALID,1002.69,VALID,0,VALID,93.3241,VALID,0,VALID,26.4707,VALID,256,VALID,0.901172,
2011-04-15, 02:28:04,VALID,1002.7,VALID,0,VALID,93.4919,VALID,0,VALID,26.4512,VALID,243,VALID,0.508984,
2011-04-15, 02:29:04,VALID,1002.7,VALID,0,VALID,93.8429,VALID,0,VALID,26.4492,VALID,307,VALID,0.501953,
2011-04-15, 02:30:04,VALID,1002.71,VALID,0,VALID,93.6216,VALID,0,VALID,26.4297,VALID,219,VALID,1.18008,
2011-04-15, 02:31:04,VALID,1002.75,VALID,0,VALID,93.6826,VALID,0,VALID,26.4707,VALID,219,VALID,1.13984,
2011-04-15, 02:32:04,VALID,1002.75,VALID,0,VALID,93.2249,VALID,0,VALID,26.4901,VALID,231,VALID,1.4793,
2011-04-15, 02:33:04,VALID,1002.74,VALID,0,VALID,93.5377,VALID,0,VALID,26.5076,VALID,205,VALID,0.488281,
2011-04-15, 02:34:04,VALID,1002.75,VALID,0,VALID,92.8816,VALID,0,VALID,26.5271,VALID,193,VALID,1.10469,
2011-04-15, 02:35:04,VALID,1002.74,VALID,0,VALID,93.1334,VALID,0,VALID,26.5466,VALID,234,VALID,1.19414,
2011-04-15, 02:36:04,VALID,1002.75,VALID,0,VALID,93.4538,VALID,0,VALID,26.5466,VALID,235,VALID,1.30273,
2011-04-15, 02:37:04,VALID,1002.72,VALID,0,VALID,93.9649,VALID,0,VALID,26.5661,VALID,246,VALID,0.395312,
2011-04-15, 02:38:04,VALID,1002.78,VALID,0,VALID,93.3088,VALID,0,VALID,26.5661,VALID,205,VALID,0.771094,
2011-04-15, 02:39:04,VALID,1002.74,VALID,0,VALID,93.6979,VALID,0,VALID,26.5855,VALID,304,VALID,1.08555,
2011-04-15, 02:40:04,VALID,1002.75,VALID,0,VALID,93.7666,VALID,0,VALID,26.605,VALID,237,VALID,0.334766,
2011-04-15, 02:41:04,VALID,1002.74,VALID,0,VALID,93.6598,VALID,0,VALID,26.5641,VALID,230,VALID,1.43164,
2011-04-15, 02:42:04,VALID,1002.75,VALID,0,VALID,94.1556,VALID,0,VALID,26.5855,VALID,257,VALID,0.407813,
2011-04-15, 02:43:04,VALID,1002.75,VALID,0,VALID,94.3845,VALID,0,VALID,26.6245,VALID,314,VALID,0.512891,
2011-04-15, 02:44:04,VALID,1002.71,VALID,0,VALID,94.3158,VALID,0,VALID,26.603,VALID,289,VALID,0.371484,
2011-04-15, 02:45:04,VALID,1002.72,VALID,0,VALID,93.7208,VALID,0,VALID,26.6225,VALID,246,VALID,0.8625,
2011-04-15, 02:46:04,VALID,1002.74,VALID,0,VALID,93.8047,VALID,0,VALID,26.642,VALID,238,VALID,0.9875,
2011-04-15, 02:47:04,VALID,1002.77,VALID,0,VALID,93.6521,VALID,0.100563,VALID,26.6614,VALID,157,VALID,0.378125,
2011-04-15, 02:48:04,VALID,1002.79,VALID,0,VALID,93.6369,VALID,0,VALID,26.6614,VALID,233,VALID,0.654688,
2011-04-15, 02:49:04,VALID,1002.78,VALID,0,VALID,93.4767,VALID,0,VALID,26.7024,VALID,263,VALID,0.416016,
2011-04-15, 02:50:04,VALID,1002.75,VALID,0,VALID,93.5682,VALID,0,VALID,26.7004,VALID,270,VALID,1.04375,
2011-04-15, 02:51:04,VALID,1002.74,VALID,0,VALID,93.9191,VALID,0,VALID,26.7414,VALID,294,VALID,0.586328,
2011-04-15, 02:52:04,VALID,1002.75,VALID,0,VALID,93.5301,VALID,0,VALID,26.7414,VALID,289,VALID,0.740625,
2011-04-15, 02:53:04,VALID,1002.71,VALID,0,VALID,92.9426,VALID,0,VALID,26.7004,VALID,274,VALID,1.16055,
2011-04-15, 02:54:04,VALID,1002.71,VALID,0,VALID,92.5307,VALID,0,VALID,26.7394,VALID,248,VALID,0.741406,
2011-04-15, 02:55:04,VALID,1002.71,VALID,0,VALID,91.8517,VALID,0,VALID,26.7394,VALID,249,VALID,1.175,
2011-04-15, 02:56:04,VALID,1002.7,VALID,0,VALID,91.9814,VALID,0,VALID,26.7804,VALID,240,VALID,0.567578,
2011-04-15, 02:57:04,VALID,1002.7,VALID,0,VALID,91.8365,VALID,0,VALID,26.7783,VALID,250,VALID,0.482031,
2011-04-15, 02:58:04,VALID,1002.7,VALID,0,VALID,91.7373,VALID,0,VALID,26.8193,VALID,240,VALID,1.03203,
2011-04-15, 02:59:04,VALID,1002.71,VALID,0,VALID,91.127,VALID,0,VALID,26.8193,VALID,298,VALID,1.6125,
2011-04-15, 03:00:04,VALID,1002.67,VALID,0,VALID,90.8295,VALID,0,VALID,26.8388,VALID,295,VALID,0.716406,
2011-04-15, 03:01:04,VALID,1002.69,VALID,0,VALID,90.3336,VALID,0,VALID,26.8173,VALID,274,VALID,1.53242,
2011-04-15, 03:02:04,VALID,1002.67,VALID,0,VALID,90.0742,VALID,0,VALID,26.8368,VALID,224,VALID,1.40937,
2011-04-15, 03:03:04,VALID,1002.63,VALID,0,VALID,90.2191,VALID,0,VALID,26.8368,VALID,240,VALID,0.926953,
2011-04-15, 03:04:04,VALID,1002.63,VALID,0,VALID,90.1047,VALID,0,VALID,26.8563,VALID,286,VALID,0.723047,
2011-04-15, 03:05:04,VALID,1002.63,VALID,0,VALID,90.4633,VALID,0,VALID,26.8757,VALID,223,VALID,0.803906,
2011-04-15, 03:06:04,VALID,1002.62,VALID,0,VALID,89.9674,VALID,0,VALID,26.8563,VALID,249,VALID,1.29961,
2011-04-15, 03:07:04,VALID,1002.63,VALID,0,VALID,89.8148,VALID,0.100563,VALID,26.8542,VALID,240,VALID,2.00391,
2011-04-15, 03:08:04,VALID,1002.65,VALID,0,VALID,90.3946,VALID,0,VALID,26.8757,VALID,270,VALID,2.21484,
2011-04-15, 03:09:04,VALID,1002.65,VALID,0,VALID,91.6076,VALID,0,VALID,26.8563,VALID,265,VALID,1.56875,
2011-04-15, 03:10:04,VALID,1002.64,VALID,0,VALID,92.6604,VALID,0,VALID,26.8173,VALID,269,VALID,0.639063,
2011-04-15, 03:11:04,VALID,1002.66,VALID,0,VALID,93.202,VALID,0,VALID,26.7609,VALID,269,VALID,0.841797,
2011-04-15, 03:12:04,VALID,1002.67,VALID,0,VALID,93.3088,VALID,0.100563,VALID,26.7004,VALID,263,VALID,1.23125,
2011-04-15, 03:13:04,VALID,1002.62,VALID,0,VALID,93.2554,VALID,0,VALID,26.6635,VALID,276,VALID,1.04258,
2011-04-15, 03:14:04,VALID,1002.69,VALID,0,VALID,93.6369,VALID,0,VALID,26.603,VALID,147,VALID,0.646875,
2011-04-15, 03:15:04,VALID,1002.65,VALID,0,VALID,93.4156,VALID,0,VALID,26.5876,VALID,301,VALID,0.885938,
2011-04-15, 03:16:04,VALID,1002.66,VALID,0,VALID,92.9503,VALID,0,VALID,26.5271,VALID,279,VALID,0.807031,
2011-04-15, 03:17:04,VALID,1002.63,VALID,0,VALID,92.5612,VALID,0,VALID,26.5076,VALID,247,VALID,1.20703,
2011-04-15, 03:18:04,VALID,1002.62,VALID,0,VALID,92.8206,VALID,0,VALID,26.5056,VALID,264,VALID,0.997266,
2011-04-15, 03:19:04,VALID,1002.68,VALID,0,VALID,93.1486,VALID,0,VALID,26.5096,VALID,263,VALID,0.725781,
2011-04-15, 03:20:04,VALID,1002.67,VALID,0,VALID,92.607,VALID,0,VALID,26.4687,VALID,297,VALID,0.935938,
2011-04-15, 03:21:04,VALID,1002.72,VALID,0,VALID,92.7519,VALID,0,VALID,26.4687,VALID,283,VALID,0.660547,
2011-04-15, 03:22:04,VALID,1002.7,VALID,0,VALID,92.9732,VALID,0,VALID,26.4687,VALID,288,VALID,0.742578,
2011-04-15, 03:23:04,VALID,1002.74,VALID,0,VALID,92.462,VALID,0,VALID,26.4687,VALID,311,VALID,1.46211,
2011-04-15, 03:24:04,VALID,1002.76,VALID,0,VALID,93.0266,VALID,0,VALID,26.4492,VALID,294,VALID,0.938672,
2011-04-15, 03:25:04,VALID,1002.71,VALID,0,VALID,92.4773,VALID,0,VALID,26.4297,VALID,298,VALID,1.49688,
2011-04-15, 03:26:04,VALID,1002.7,VALID,0,VALID,92.2713,VALID,0,VALID,26.4512,VALID,254,VALID,1.01133,
2011-04-15, 03:27:04,VALID,1002.6,VALID,0,VALID,92.1111,VALID,0,VALID,26.4297,VALID,302,VALID,0.441406,
2011-04-15, 03:28:04,VALID,1002.57,VALID,0,VALID,91.0049,VALID,0,VALID,26.4102,VALID,1,VALID,0.813281,
2011-04-15, 03:29:04,VALID,1002.51,VALID,0,VALID,91.8517,VALID,0,VALID,26.4297,VALID,292,VALID,0.237891,
2011-04-15, 03:30:04,VALID,1002.48,VALID,0,VALID,90.2573,VALID,0,VALID,26.3887,VALID,294,VALID,0.946875,
2011-04-15, 03:31:04,VALID,1002.43,VALID,0,VALID,90.6921,VALID,0,VALID,26.3887,VALID,278,VALID,1.03125,
2011-04-15, 03:32:04,VALID,1002.44,VALID,0,VALID,90.1047,VALID,0,VALID,26.3693,VALID,308,VALID,0.712891,
2011-04-15, 03:33:04,VALID,1002.39,VALID,0,VALID,90.4633,VALID,0,VALID,26.3693,VALID,258,VALID,0.816797,
2011-04-15, 03:34:04,VALID,1002.4,VALID,0,VALID,90.3336,VALID,0,VALID,26.3693,VALID,282,VALID,0.755859,
2011-04-15, 03:35:04,VALID,1002.38,VALID,0,VALID,90.3793,VALID,0,VALID,26.3907,VALID,293,VALID,0.413672,
2011-04-15, 03:36:04,VALID,1002.38,VALID,0,VALID,89.5936,VALID,0,VALID,26.3303,VALID,265,VALID,1.6582,
2011-04-15, 03:37:04,VALID,1002.38,VALID,0,VALID,89.5554,VALID,0,VALID,26.3693,VALID,250,VALID,1.01133,
2011-04-15, 03:38:04,VALID,1002.37,VALID,0,VALID,89.0901,VALID,0.100563,VALID,26.3887,VALID,287,VALID,1.30039,
2011-04-15, 03:39:04,VALID,1002.37,VALID,0,VALID,88.8383,VALID,0,VALID,26.3887,VALID,287,VALID,1.08945,
2011-04-15, 03:40:04,VALID,1002.33,VALID,0,VALID,88.6018,VALID,0,VALID,26.4492,VALID,274,VALID,1.05313,
2011-04-15, 03:41:04,VALID,1002.31,VALID,0,VALID,88.9985,VALID,0,VALID,26.4472,VALID,228,VALID,0.833984,
2011-04-15, 03:42:04,VALID,1002.28,VALID,0,VALID,89.2121,VALID,0,VALID,26.4492,VALID,239,VALID,0.734766,
2011-04-15, 03:43:04,VALID,1002.26,VALID,0,VALID,89.5554,VALID,0,VALID,26.4472,VALID,247,VALID,0.571875,
2011-04-15, 03:44:04,VALID,1002.27,VALID,0,VALID,89.1358,VALID,0,VALID,26.4492,VALID,253,VALID,1.47969,